,,PA_Meas_PMT16A,,PR_Meas_QMR101_102,,RH_Meas_QMH101,,SR_Meas_QMS101,,TA_Meas_QMH101,,GenWind,,GenWind,
time,status,PA,status,PR,status,RH,status,SR,status,TA,status,DirAvg,status,SpdAvg,
2016-01-29, 07:43:04,VALID,918.905,VALID,0,VALID,104,VALID,165.889,VALID,18.7697,VALID,154,VALID,1.11094,
2016-01-29, 07:44:04,VALID,918.912,VALID,0,VALID,104,VALID,174.377,VALID,18.9257,VALID,134,VALID,0.648438,
2016-01-29, 07:45:04,VALID,918.987,VALID,0,VALID,104,VALID,169.757,VALID,19.0803,VALID,152,VALID,1.03789,
2016-01-29, 07:46:04,VALID,918.969,VALID,0,VALID,104,VALID,136.02,VALID,19.2572,VALID,154,VALID,0.890625,
2016-01-29, 07:51:04,VALID,919.027,VALID,0,VALID,103.961,VALID,121.301,VALID,19.3923,VALID,149,VALID,1.63242,
2016-01-29, 07:52:04,VALID,919.028,VALID,0,VALID,103.938,VALID,192.749,VALID,19.4313,VALID,137,VALID,1.38242,
2016-01-29, 07:53:04,VALID,919.045,VALID,0,VALID,103.823,VALID,200.593,VALID,19.5303,VALID,144,VALID,1.42461,
2016-01-29, 07:54:04,VALID,919.062,VALID,0,VALID,103.579,VALID,202.527,VALID,19.6263,VALID,152,VALID,0.975391,
2016-01-29, 07:55:04,VALID,919.079,VALID,0,VALID,103.053,VALID,205.75,VALID,19.8033,VALID,146,VALID,0.870313,
2016-01-29, 07:56:04,VALID,919.109,VALID,0,VALID,102.512,VALID,210.8,VALID,19.9578,VALID,170,VALID,1.11875,
2016-01-29, 07:57:04,VALID,919.114,VALID,0,VALID,102.062,VALID,214.023,VALID,20.0944,VALID,145,VALID,0.664063,
2016-01-29, 07:58:04,VALID,919.143,VALID,0,VALID,101.186,VALID,214.775,VALID,20.1724,VALID,151,VALID,1.21719,
2016-01-29, 07:59:04,VALID,919.125,VALID,0,VALID,101.132,VALID,217.246,VALID,20.2894,VALID,178,VALID,0.673828,
2016-01-29, 08:00:04,VALID,919.185,VALID,0,VALID,100.134,VALID,222.188,VALID,20.3869,VALID,164,VALID,1.11094,
2016-01-29, 08:01:04,VALID,919.204,VALID,0,VALID,99.4627,VALID,226.164,VALID,20.4454,VALID,185,VALID,1.21914,
2016-01-29, 08:02:04,VALID,919.204,VALID,0,VALID,99.478,VALID,229.387,VALID,20.543,VALID,172,VALID,0.748828,
2016-01-29, 08:03:04,VALID,919.243,VALID,0,VALID,98.769,VALID,231.536,VALID,20.5414,VALID,172,VALID,1.00117,
2016-01-29, 08:04:04,VALID,919.222,VALID,0,VALID,97.5416,VALID,233.147,VALID,20.4634,VALID,172,VALID,1.64219,
2016-01-29, 08:05:04,VALID,919.222,VALID,0,VALID,98.7309,VALID,238.627,VALID,20.4454,VALID,180,VALID,1.35781,
2016-01-29, 08:06:04,VALID,919.194,VALID,0,VALID,99.3712,VALID,244.536,VALID,20.4634,VALID,178,VALID,1.05156,
2016-01-29, 08:07:04,VALID,919.209,VALID,0,VALID,95.6815,VALID,251.95,VALID,20.4454,VALID,176,VALID,1.64844,
2016-01-29, 08:08:04,VALID,919.205,VALID,0,VALID,97.0766,VALID,258.826,VALID,20.465,VALID,149,VALID,1.4793,
2016-01-29, 08:09:04,VALID,919.212,VALID,0,VALID,96.8326,VALID,268.066,VALID,20.4244,VALID,166,VALID,1.72656,
2016-01-29, 08:10:04,VALID,919.213,VALID,0,VALID,98.708,VALID,277.628,VALID,20.4829,VALID,167,VALID,1.16484,
2016-01-29, 08:11:04,VALID,919.208,VALID,0,VALID,99.7143,VALID,283.322,VALID,20.6194,VALID,155,VALID,1.01094,
2016-01-29, 08:12:04,VALID,919.203,VALID,0,VALID,94.4236,VALID,286.76,VALID,20.7365,VALID,144,VALID,1.6207,
2016-01-29, 08:13:04,VALID,919.2,VALID,0,VALID,91.9994,VALID,288.05,VALID,20.8145,VALID,143,VALID,1.6793,
2016-01-29, 08:14:04,VALID,919.211,VALID,0,VALID,96.3905,VALID,292.562,VALID,20.9901,VALID,178,VALID,0,
2016-01-29, 08:15:04,VALID,919.243,VALID,0,VALID,90.5052,VALID,299.009,VALID,21.1445,VALID,157,VALID,0.610937,
2016-01-29, 08:16:04,VALID,919.246,VALID,0,VALID,86.3504,VALID,306.53,VALID,21.2827,VALID,165,VALID,1.18516,
2016-01-29, 08:17:04,VALID,919.255,VALID,0,VALID,84.5284,VALID,313.621,VALID,21.3608,VALID,148,VALID,0.855469,
2016-01-29, 08:18:04,VALID,919.246,VALID,0,VALID,84.4674,VALID,319.423,VALID,21.4973,VALID,160,VALID,0,
2016-01-29, 08:19:04,VALID,919.257,VALID,0,VALID,83.8118,VALID,326.191,VALID,21.6128,VALID,169,VALID,0,
2016-01-29, 08:20:04,VALID,919.302,VALID,0,VALID,83.4535,VALID,330.811,VALID,21.7103,VALID,159,VALID,0,
2016-01-29, 08:21:04,VALID,919.312,VALID,0,VALID,82.5921,VALID,336.076,VALID,21.7298,VALID,177,VALID,1.08438,
2016-01-29, 08:22:04,VALID,919.329,VALID,0,VALID,83.2706,VALID,344.456,VALID,21.8469,VALID,175,VALID,0.877734,
2016-01-29, 08:23:04,VALID,919.365,VALID,0,VALID,81.2885,VALID,358.424,VALID,21.9249,VALID,155,VALID,1.4082,
2016-01-29, 08:24:04,VALID,919.408,VALID,0,VALID,81.4791,VALID,375.292,VALID,21.9038,VALID,158,VALID,1.0793,
2016-01-29, 08:25:04,VALID,919.423,VALID,0,VALID,80.9912,VALID,391.623,VALID,21.9038,VALID,169,VALID,2.04688,
2016-01-29, 08:26:04,VALID,919.452,VALID,0,VALID,80.7548,VALID,409.888,VALID,21.8664,VALID,169,VALID,1.08008,
2016-01-29, 08:27:04,VALID,919.468,VALID,0,VALID,82.5235,VALID,425.682,VALID,21.9071,VALID,193,VALID,1.09414,
2016-01-29, 08:28:04,VALID,919.468,VALID,0,VALID,81.7078,VALID,414.83,VALID,21.9461,VALID,178,VALID,1.49609,
2016-01-29, 08:29:04,VALID,919.489,VALID,0,VALID,81.784,VALID,390.549,VALID,22.042,VALID,177,VALID,1.19453,
2016-01-29, 08:30:04,VALID,919.51,VALID,0,VALID,81.4028,VALID,361.432,VALID,22.1786,VALID,186,VALID,1.09102,
2016-01-29, 08:31:04,VALID,919.537,VALID,0,VALID,79.901,VALID,466.402,VALID,22.2176,VALID,183,VALID,1.4957,
2016-01-29, 08:32:04,VALID,919.567,VALID,0,VALID,79.6952,VALID,507.23,VALID,22.2176,VALID,165,VALID,1.13516,
2016-01-29, 08:33:04,VALID,919.605,VALID,0,VALID,79.6571,VALID,515.932,VALID,22.333,VALID,166,VALID,0.580859,
2016-01-29, 08:34:04,VALID,919.652,VALID,0,VALID,79.9696,VALID,348.217,VALID,22.4696,VALID,173,VALID,1.43945,
2016-01-29, 08:35:04,VALID,919.63,VALID,0,VALID,79.1616,VALID,308.141,VALID,22.4501,VALID,173,VALID,1.1832,
2016-01-29, 08:36:04,VALID,919.661,VALID,0,VALID,77.492,VALID,257.214,VALID,22.4128,VALID,174,VALID,1.1043,
2016-01-29, 08:37:04,VALID,919.633,VALID,0,VALID,77.2023,VALID,275.372,VALID,22.333,VALID,176,VALID,1.49688,
2016-01-29, 08:38:04,VALID,919.657,VALID,0,VALID,78.1324,VALID,312.654,VALID,22.1786,VALID,176,VALID,1.31484,
2016-01-29, 08:39:04,VALID,919.665,VALID,0,VALID,78.9633,VALID,415.582,VALID,22.1786,VALID,189,VALID,1.26016,
2016-01-29, 08:40:04,VALID,919.633,VALID,0,VALID,79.2149,VALID,487.675,VALID,22.1769,VALID,167,VALID,0.771875,
2016-01-29, 08:41:04,VALID,919.637,VALID,0,VALID,77.9342,VALID,295.033,VALID,22.2745,VALID,198,VALID,0.713672,
2016-01-29, 08:42:04,VALID,919.627,VALID,0,VALID,77.0727,VALID,251.305,VALID,22.3135,VALID,186,VALID,0.83125,
2016-01-29, 08:43:04,VALID,919.651,VALID,0,VALID,77.6369,VALID,237.767,VALID,22.2567,VALID,168,VALID,0.939844,
2016-01-29, 08:44:04,VALID,919.69,VALID,0,VALID,78.5288,VALID,227.883,VALID,22.1964,VALID,178,VALID,1.14063,
2016-01-29, 08:45:04,VALID,919.687,VALID,0,VALID,78.7423,VALID,224.23,VALID,22.1964,VALID,206,VALID,0.725391,
2016-01-29, 08:46:04,VALID,919.679,VALID,0,VALID,79.7867,VALID,225.626,VALID,22.2354,VALID,198,VALID,0.608203,
2016-01-29, 08:47:04,VALID,919.684,VALID,0,VALID,79.4741,VALID,229.065,VALID,22.372,VALID,175,VALID,0,
2016-01-29, 08:48:04,VALID,919.685,VALID,0,VALID,79.4665,VALID,231.428,VALID,22.4306,VALID,176,VALID,0,
2016-01-29, 08:49:04,VALID,919.714,VALID,0,VALID,78.4221,VALID,235.081,VALID,22.4306,VALID,163,VALID,0,
2016-01-29, 08:50:04,VALID,919.713,VALID,0,VALID,76.7068,VALID,239.809,VALID,22.4306,VALID,147,VALID,0,
2016-01-29, 08:51:04,VALID,919.738,VALID,0,VALID,77.5683,VALID,242.387,VALID,22.4111,VALID,180,VALID,0,
2016-01-29, 08:52:04,VALID,919.728,VALID,0,VALID,78.6127,VALID,242.172,VALID,22.4111,VALID,143,VALID,0,
2016-01-29, 08:53:04,VALID,919.751,VALID,0,VALID,78.14,VALID,246.47,VALID,22.4289,VALID,132,VALID,0,
2016-01-29, 08:54:04,VALID,919.731,VALID,0,VALID,77.675,VALID,253.454,VALID,22.4891,VALID,131,VALID,0,
2016-01-29, 08:55:04,VALID,919.722,VALID,0,VALID,77.9952,VALID,259.47,VALID,22.4891,VALID,141,VALID,0,
2016-01-29, 08:56:04,VALID,919.7,VALID,0,VALID,79.0777,VALID,271.719,VALID,22.5477,VALID,169,VALID,0,
2016-01-29, 08:57:04,VALID,919.719,VALID,0,VALID,78.7728,VALID,278.917,VALID,22.6843,VALID,169,VALID,0,
2016-01-29, 08:58:04,VALID,919.73,VALID,0,VALID,77.1947,VALID,283.215,VALID,22.8014,VALID,147,VALID,0,
2016-01-29, 08:59:04,VALID,919.725,VALID,0,VALID,76.7068,VALID,279.884,VALID,22.7216,VALID,135,VALID,0,
2016-01-29, 09:00:04,VALID,919.755,VALID,0,VALID,77.6826,VALID,306.207,VALID,22.7411,VALID,135,VALID,0,
2016-01-29, 09:01:04,VALID,919.737,VALID,0,VALID,76.1122,VALID,282.355,VALID,22.7038,VALID,145,VALID,0,
2016-01-29, 09:02:04,VALID,919.76,VALID,0,VALID,77.3548,VALID,280.529,VALID,22.663,VALID,145,VALID,0,
2016-01-29, 09:03:04,VALID,919.785,VALID,0,VALID,77.4692,VALID,303.521,VALID,22.7428,VALID,145,VALID,0,
2016-01-29, 09:04:04,VALID,919.787,VALID,0,VALID,78.4145,VALID,298.794,VALID,22.7996,VALID,167,VALID,0,
2016-01-29, 09:05:04,VALID,919.768,VALID,0,VALID,78.0485,VALID,331.026,VALID,22.8989,VALID,151,VALID,0,
2016-01-29, 09:06:04,VALID,919.774,VALID,0,VALID,77.8046,VALID,333.497,VALID,22.9167,VALID,162,VALID,0,
2016-01-29, 09:07:04,VALID,919.753,VALID,0,VALID,76.4324,VALID,507.445,VALID,22.9753,VALID,175,VALID,0,
2016-01-29, 09:08:04,VALID,919.719,VALID,0,VALID,77.5835,VALID,594.902,VALID,23.0533,VALID,171,VALID,0.028125,
2016-01-29, 09:09:04,VALID,919.714,VALID,0,VALID,76.966,VALID,362.184,VALID,23.0941,VALID,173,VALID,1.2625,
2016-01-29, 09:10:04,VALID,919.699,VALID,0,VALID,76.3714,VALID,368.738,VALID,23.1314,VALID,160,VALID,1.21211,
2016-01-29, 09:11:04,VALID,919.697,VALID,0,VALID,76.4247,VALID,309.538,VALID,23.1314,VALID,173,VALID,0,
2016-01-29, 09:12:04,VALID,919.684,VALID,0,VALID,76.5925,VALID,325.654,VALID,23.1119,VALID,171,VALID,0,
2016-01-29, 09:13:04,VALID,919.694,VALID,0,VALID,76.8364,VALID,653.887,VALID,23.2094,VALID,188,VALID,0,
2016-01-29, 09:14:04,VALID,919.708,VALID,0,VALID,77.2023,VALID,347.68,VALID,23.4437,VALID,188,VALID,0,
2016-01-29, 09:15:04,VALID,919.727,VALID,0,VALID,74.8619,VALID,366.482,VALID,23.5022,VALID,187,VALID,0,
2016-01-29, 09:16:04,VALID,919.71,VALID,0,VALID,75.8073,VALID,277.091,VALID,23.5412,VALID,152,VALID,0,
2016-01-29, 09:17:04,VALID,919.727,VALID,0,VALID,75.6853,VALID,270.537,VALID,23.6388,VALID,159,VALID,0,
2016-01-29, 09:18:04,VALID,919.721,VALID,0,VALID,74.9915,VALID,267.636,VALID,23.6779,VALID,156,VALID,0,
2016-01-29, 09:19:04,VALID,919.703,VALID,0,VALID,76.3104,VALID,269.677,VALID,23.8145,VALID,156,VALID,0,
2016-01-29, 09:20:04,VALID,919.714,VALID,0,VALID,73.909,VALID,270.752,VALID,23.8358,VALID,159,VALID,0,
2016-01-29, 09:21:04,VALID,919.737,VALID,0,VALID,74.7247,VALID,270.215,VALID,23.7755,VALID,158,VALID,0,
2016-01-29, 09:22:04,VALID,919.715,VALID,0,VALID,73.9166,VALID,271.181,VALID,23.795,VALID,158,VALID,0,
2016-01-29, 09:23:04,VALID,919.725,VALID,0,VALID,74.7628,VALID,276.124,VALID,23.8536,INVALID,360,INVALID,0,
2016-01-29, 09:24:04,VALID,919.717,VALID,0,VALID,73.2458,VALID,285.901,VALID,23.834,VALID,166,VALID,0,
2016-01-29, 09:25:04,VALID,919.758,VALID,0,VALID,74.6256,VALID,295.248,VALID,23.8749,VALID,166,VALID,0,
2016-01-29, 09:26:04,VALID,919.754,VALID,0,VALID,75.6472,VALID,297.719,VALID,24.0097,VALID,166,VALID,0,
2016-01-29, 09:27:04,VALID,919.756,VALID,0,VALID,74.9611,VALID,292.777,VALID,24.1677,VALID,166,VALID,0,
2016-01-29, 09:28:04,VALID,919.776,VALID,0,VALID,73.8099,VALID,282.678,VALID,24.244,VALID,166,VALID,0,
2016-01-29, 09:29:04,VALID,919.769,VALID,0,VALID,73.2382,VALID,274.727,VALID,24.2635,VALID,166,VALID,0,
2016-01-29, 09:30:04,VALID,919.812,VALID,0,VALID,73.2687,VALID,272.363,VALID,24.283,VALID,166,VALID,0,
2016-01-29, 09:31:04,VALID,919.801,VALID,0,VALID,72.8265,VALID,274.405,VALID,24.2654,VALID,164,VALID,0,
2016-01-29, 09:32:04,VALID,919.811,VALID,0,VALID,74.2902,VALID,278.38,VALID,24.1854,VALID,164,VALID,0,
2016-01-29, 09:33:04,VALID,919.823,VALID,0,VALID,74.4045,VALID,282.678,VALID,24.244,VALID,167,VALID,0,
2016-01-29, 09:34:04,VALID,919.817,VALID,0,VALID,74.0691,VALID,289.446,VALID,24.244,VALID,170,VALID,0,
2016-01-29, 09:35:04,VALID,919.834,VALID,0,VALID,73.627,VALID,296,VALID,24.283,VALID,170,VALID,0,
2016-01-29, 09:36:04,VALID,919.823,VALID,0,VALID,73.787,VALID,302.662,VALID,24.3416,VALID,170,VALID,0,
2016-01-29, 09:37:04,VALID,919.812,VALID,0,VALID,73.4135,VALID,306.1,VALID,24.2635,VALID,170,VALID,0,
2016-01-29, 09:38:04,VALID,919.821,VALID,0,VALID,74.1301,VALID,304.058,VALID,24.3026,VALID,170,VALID,0,
2016-01-29, 09:39:04,VALID,919.81,VALID,0,VALID,73.261,VALID,301.158,VALID,24.2421,VALID,170,VALID,0,
2016-01-29, 09:40:04,VALID,919.809,VALID,0,VALID,72.1328,VALID,298.901,VALID,24.2635,VALID,164,VALID,0,
2016-01-29, 09:41:04,VALID,919.827,VALID,0,VALID,72.0184,VALID,299.761,VALID,24.2245,VALID,167,VALID,0,
2016-01-29, 09:42:04,VALID,919.779,VALID,0,VALID,71.9727,VALID,303.736,VALID,24.2049,VALID,167,VALID,0,
2016-01-29, 09:43:04,VALID,919.771,VALID,0,VALID,71.378,VALID,311.687,VALID,24.3221,VALID,167,VALID,0,
2016-01-29, 09:44:04,VALID,919.771,VALID,0,VALID,71.5229,VALID,320.712,VALID,24.5173,VALID,167,VALID,0,
2016-01-29, 09:45:04,VALID,919.84,VALID,0,VALID,71.2484,VALID,326.406,VALID,24.4959,VALID,152,VALID,0,
2016-01-29, 09:46:04,VALID,919.831,VALID,0,VALID,72.7426,VALID,326.943,VALID,24.4764,VALID,152,VALID,0,
2016-01-29, 09:47:04,VALID,919.856,VALID,0,VALID,70.9511,VALID,325.439,VALID,24.6149,VALID,152,VALID,0,
2016-01-29, 09:48:04,VALID,919.823,VALID,0,VALID,70.6996,VALID,323.076,VALID,24.7107,VALID,156,VALID,0,
2016-01-29, 09:49:04,VALID,919.849,VALID,0,VALID,69.6323,VALID,323.29,VALID,24.7907,VALID,158,VALID,0,
2016-01-29, 09:50:04,VALID,919.853,VALID,0,VALID,69.7771,VALID,326.621,VALID,24.8864,VALID,158,VALID,0,
2016-01-29, 09:51:04,VALID,919.878,VALID,0,VALID,69.3807,VALID,333.82,VALID,24.7302,VALID,156,VALID,0,
2016-01-29, 09:52:04,VALID,919.855,VALID,0,VALID,69.9677,VALID,343.06,VALID,24.6912,VALID,166,VALID,0,
2016-01-29, 09:53:04,VALID,919.839,VALID,0,VALID,71.096,VALID,352.729,VALID,24.7107,VALID,146,VALID,0,
2016-01-29, 09:54:04,VALID,919.818,VALID,0,VALID,69.7085,VALID,422.351,VALID,24.5935,VALID,137,VALID,0,
2016-01-29, 09:55:04,VALID,919.834,VALID,0,VALID,72.7198,VALID,389.367,VALID,24.4374,VALID,120,VALID,0,
2016-01-29, 09:56:04,VALID,919.844,VALID,0,VALID,70.3489,VALID,377.226,VALID,24.3983,VALID,100,VALID,0,
2016-01-29, 09:57:04,VALID,919.795,VALID,0,VALID,71.8278,VALID,385.499,VALID,24.4374,VALID,100,VALID,0,
2016-01-29, 09:58:04,VALID,919.816,VALID,0,VALID,70.204,VALID,366.267,VALID,24.5526,VALID,100,VALID,0,
2016-01-29, 09:59:04,VALID,919.816,VALID,0,VALID,69.1139,VALID,428.69,VALID,24.7283,VALID,101,VALID,0,
2016-01-29, 10:00:04,VALID,919.805,VALID,0,VALID,67.917,VALID,352.192,VALID,24.9431,VALID,101,VALID,0,
2016-01-29, 10:01:04,VALID,919.804,VALID,0,VALID,66.865,VALID,340.696,VALID,25.0993,VALID,101,VALID,0,
2016-01-29, 10:02:04,VALID,919.792,VALID,0,VALID,68.687,VALID,332.96,VALID,25.1988,VALID,101,VALID,0,
2016-01-29, 10:03:04,VALID,919.775,VALID,0,VALID,69.5484,VALID,329.737,VALID,25.2945,VALID,101,VALID,0,
2016-01-29, 10:04:04,VALID,919.77,VALID,0,VALID,69.6247,VALID,331.993,VALID,25.4722,VALID,100,VALID,0,
2016-01-29, 10:05:04,VALID,919.79,VALID,0,VALID,68.9233,VALID,335.431,VALID,25.607,VALID,101,VALID,0,
2016-01-29, 10:06:04,VALID,919.766,VALID,0,VALID,68.2677,VALID,338.655,VALID,25.5874,VALID,102,VALID,0,
2016-01-29, 10:07:04,VALID,919.792,VALID,0,VALID,68.9538,VALID,341.663,VALID,25.5874,VALID,103,VALID,0,
2016-01-29, 10:08:04,VALID,919.749,VALID,0,VALID,68.0847,VALID,343.597,VALID,25.6675,VALID,103,VALID,0,
2016-01-29, 10:09:04,VALID,919.773,VALID,0,VALID,68.4202,VALID,349.076,VALID,25.7847,VALID,103,VALID,0,
2016-01-29, 10:10:04,VALID,919.76,VALID,0,VALID,67.8789,VALID,348.324,VALID,25.9409,VALID,103,VALID,0,
2016-01-29, 10:11:04,VALID,919.781,VALID,0,VALID,67.0632,VALID,345.853,VALID,26.0386,VALID,103,VALID,0,
2016-01-29, 10:12:04,VALID,919.775,VALID,0,VALID,66.4305,VALID,345.638,VALID,26.1362,VALID,112,VALID,0,
2016-01-29, 10:13:04,VALID,919.751,VALID,0,VALID,66.3618,VALID,344.886,VALID,25.98,VALID,120,VALID,0,
2016-01-29, 10:14:04,VALID,919.742,VALID,0,VALID,66.8269,VALID,342.952,VALID,25.5894,VALID,120,VALID,0,
2016-01-29, 10:15:04,VALID,919.695,VALID,0,VALID,68.3515,VALID,343.274,VALID,25.4722,VALID,120,VALID,0,
2016-01-29, 10:16:04,VALID,919.721,VALID,0,VALID,71.035,VALID,353.696,VALID,25.5113,VALID,120,VALID,0,
2016-01-29, 10:17:04,VALID,919.719,VALID,0,VALID,70.7453,VALID,361.539,VALID,25.4136,VALID,103,VALID,0,
2016-01-29, 10:18:04,VALID,919.679,VALID,0,VALID,72.8189,VALID,357.779,VALID,25.3941,VALID,56,VALID,0,
2016-01-29, 10:19:04,VALID,919.668,VALID,0,VALID,72.8951,VALID,368.738,VALID,25.316,VALID,64,VALID,1.42109,
2016-01-29, 10:20:04,VALID,919.646,VALID,0,VALID,71.2179,VALID,368.201,VALID,25.0426,VALID,54,VALID,1.92813,
2016-01-29, 10:21:04,VALID,919.639,VALID,0,VALID,74.092,VALID,357.779,VALID,24.8474,VALID,36,VALID,1.98438,
2016-01-29, 10:22:04,VALID,919.659,VALID,0,VALID,74.6942,VALID,345.638,VALID,24.7479,VALID,49,VALID,1.54648,
2016-01-29, 10:23:04,VALID,919.646,VALID,0,VALID,75.1364,VALID,336.076,VALID,24.7888,VALID,31,VALID,1.57266,
2016-01-29, 10:24:04,VALID,919.637,VALID,0,VALID,71.7897,VALID,329.307,VALID,24.7283,VALID,36,VALID,0.727734,
2016-01-29, 10:25:04,VALID,919.623,VALID,0,VALID,72.2319,VALID,327.481,VALID,24.8474,VALID,51,VALID,1.38398,
2016-01-29, 10:26:04,VALID,919.638,VALID,0,VALID,70.0287,VALID,323.398,VALID,24.7888,VALID,46,VALID,1.08242,
2016-01-29, 10:27:04,VALID,919.658,VALID,0,VALID,71.2713,VALID,314.695,VALID,24.7302,VALID,31,VALID,1.14141,
2016-01-29, 10:28:04,VALID,919.654,VALID,0,VALID,72.9561,VALID,311.257,VALID,24.7888,VALID,31,VALID,0,
2016-01-29, 10:29:04,VALID,919.655,VALID,0,VALID,70.7453,VALID,315.447,VALID,24.9059,VALID,33,VALID,0,
2016-01-29, 10:30:04,VALID,919.635,VALID,0,VALID,71.4009,VALID,328.34,VALID,25.0017,VALID,33,VALID,0,
2016-01-29, 10:31:04,VALID,919.606,VALID,0,VALID,68.161,VALID,323.076,VALID,25.1207,VALID,150,VALID,0,
2016-01-29, 10:32:04,VALID,919.591,VALID,0,VALID,68.0542,VALID,332.423,VALID,25.2164,VALID,159,VALID,0,
2016-01-29, 10:33:04,VALID,919.588,VALID,0,VALID,67.4367,VALID,350.258,VALID,25.2164,VALID,159,VALID,0,
2016-01-29, 10:34:04,VALID,919.606,VALID,0,VALID,67.0479,VALID,478.973,VALID,25.236,VALID,159,VALID,0,
2016-01-29, 10:35:04,VALID,919.602,VALID,0,VALID,67.6349,VALID,897.349,VALID,25.3355,VALID,159,VALID,0,
2016-01-29, 10:36:04,VALID,919.594,VALID,0,VALID,66.7354,VALID,384.639,VALID,25.6089,VALID,143,VALID,0,
2016-01-29, 10:37:04,VALID,919.552,VALID,0,VALID,67.3453,VALID,366.482,VALID,25.7241,VALID,131,VALID,0,
2016-01-29, 10:38:04,VALID,919.587,VALID,0,VALID,69.1596,VALID,409.888,VALID,25.7046,VALID,62,VALID,0,
2016-01-29, 10:39:04,VALID,919.585,VALID,0,VALID,67.0174,VALID,391.193,VALID,25.687,VALID,82,VALID,0,
2016-01-29, 10:40:04,VALID,919.601,VALID,0,VALID,66.5677,VALID,641.746,VALID,25.5289,VALID,95,VALID,0,
2016-01-29, 10:41:04,VALID,919.549,VALID,0,VALID,67.3148,VALID,486.279,VALID,25.4507,VALID,95,VALID,0,
2016-01-29, 10:42:04,VALID,919.546,VALID,0,VALID,64.7685,VALID,422.136,VALID,25.5484,VALID,71,VALID,0,
2016-01-29, 10:43:04,VALID,919.521,VALID,0,VALID,64.8372,VALID,531.189,VALID,25.5093,VALID,55,VALID,0,
2016-01-29, 10:44:04,VALID,919.516,VALID,0,VALID,67.4672,VALID,379.804,VALID,25.4117,VALID,83,VALID,0,
2016-01-29, 10:45:04,VALID,919.526,VALID,0,VALID,64.8448,VALID,793.023,VALID,25.4898,VALID,83,VALID,0,
2016-01-29, 10:46:04,VALID,919.499,VALID,0,VALID,66.034,VALID,706.963,VALID,25.7632,VALID,83,VALID,0,
2016-01-29, 10:47:04,VALID,919.509,VALID,0,VALID,66.0493,VALID,501.643,VALID,25.9389,VALID,40,VALID,0,
2016-01-29, 10:48:04,VALID,919.518,VALID,0,VALID,64.6085,VALID,518.081,VALID,26.1558,VALID,107,VALID,0,
2016-01-29, 10:49:04,VALID,919.492,VALID,0,VALID,64.1892,VALID,425.789,VALID,26.3296,VALID,95,VALID,0,
2016-01-29, 10:50:04,VALID,919.501,VALID,0,VALID,65.8358,VALID,295.033,VALID,26.2319,VALID,96,VALID,0,
2016-01-29, 10:51:04,VALID,919.507,VALID,0,VALID,67.4901,VALID,305.778,VALID,26.0952,VALID,111,VALID,0,
2016-01-29, 10:52:04,VALID,919.497,VALID,0,VALID,66.9336,VALID,361.862,VALID,26.1538,VALID,112,VALID,0,
2016-01-29, 10:53:04,VALID,919.5,VALID,0,VALID,63.8232,VALID,319.315,VALID,26.1948,VALID,156,VALID,0,
2016-01-29, 10:54:04,VALID,919.463,VALID,0,VALID,62.1003,VALID,296.323,VALID,26.1558,VALID,156,VALID,0,
2016-01-29, 10:55:04,VALID,919.494,VALID,0,VALID,63.0685,VALID,311.579,VALID,25.9975,VALID,156,VALID,0,
2016-01-29, 10:56:04,VALID,919.456,VALID,0,VALID,62.8017,VALID,295.248,VALID,26.0386,VALID,156,VALID,0,
2016-01-29, 10:57:04,VALID,919.457,VALID,0,VALID,66.4457,VALID,316.737,VALID,26.1538,VALID,156,VALID,0,
2016-01-29, 10:58:04,VALID,919.439,VALID,0,VALID,63.8614,VALID,352.944,VALID,26.2144,VALID,155,VALID,0,
2016-01-29, 10:59:04,VALID,919.421,VALID,0,VALID,64.1053,VALID,364.011,VALID,26.2144,VALID,155,VALID,0,
2016-01-29, 11:00:04,VALID,919.462,VALID,0,VALID,67.8332,VALID,375.829,VALID,26.2144,VALID,182,VALID,0,
2016-01-29, 11:01:04,VALID,919.436,VALID,0,VALID,67.4596,VALID,404.516,VALID,26.1948,VALID,181,VALID,0,
2016-01-29, 11:02:04,VALID,919.396,VALID,0,VALID,68.7632,VALID,449.104,VALID,26.1558,VALID,146,VALID,0,
2016-01-29, 11:03:04,VALID,919.386,VALID,0,VALID,69.4112,VALID,442.443,VALID,26.0972,VALID,145,VALID,0,
2016-01-29, 11:04:04,VALID,919.372,VALID,0,VALID,69.7009,VALID,435.459,VALID,25.9604,VALID,150,VALID,0,
2016-01-29, 11:05:04,VALID,919.328,VALID,0,VALID,69.1901,VALID,476.716,VALID,25.98,VALID,148,VALID,0,
2016-01-29, 11:06:04,VALID,919.345,VALID,0,VALID,68.1457,VALID,455.873,VALID,25.98,VALID,160,VALID,0,
2016-01-29, 11:07:04,VALID,919.305,VALID,0,VALID,69.5637,VALID,618.431,VALID,26.019,VALID,143,VALID,0,
2016-01-29, 11:08:04,VALID,919.331,VALID,0,VALID,66.9183,VALID,1024.24,VALID,26.1362,VALID,165,VALID,0,
2016-01-29, 11:09:04,VALID,919.321,VALID,0,VALID,67.0556,VALID,673.334,VALID,26.2905,VALID,184,VALID,0,
2016-01-29, 11:10:04,VALID,919.282,VALID,0,VALID,64.6542,VALID,589.637,VALID,26.5249,VALID,184,VALID,0,
2016-01-29, 11:11:04,VALID,919.314,VALID,0,VALID,65.4699,VALID,594.794,VALID,26.6636,VALID,184,VALID,0,
2016-01-29, 11:12:04,VALID,919.288,VALID,0,VALID,62.4053,VALID,679.243,VALID,26.6616,VALID,176,VALID,0,
2016-01-29, 11:13:04,VALID,919.3,VALID,0,VALID,65.0811,VALID,717.062,VALID,26.7027,VALID,141,VALID,0,
2016-01-29, 11:14:04,VALID,919.308,VALID,0,VALID,66.0264,VALID,525.495,VALID,26.8981,VALID,148,VALID,0,
2016-01-29, 11:15:04,VALID,919.303,VALID,0,VALID,66.8574,VALID,478.758,VALID,27.0935,VALID,141,VALID,0,
2016-01-29, 11:16:04,VALID,919.292,VALID,0,VALID,64.4026,VALID,494.552,VALID,26.8374,VALID,86,VALID,1.51406,
2016-01-29, 11:17:04,VALID,919.268,VALID,0,VALID,65.7672,VALID,435.029,VALID,26.4858,VALID,56,VALID,1.79492,
2016-01-29, 11:18:04,VALID,919.241,VALID,0,VALID,68.6412,VALID,393.449,VALID,26.2124,VALID,84,VALID,0.312109,
2016-01-29, 11:19:04,VALID,919.23,VALID,0,VALID,66.4914,VALID,431.161,VALID,26.1147,VALID,62,VALID,0,
2016-01-29, 11:20:04,VALID,919.224,VALID,0,VALID,67.6197,VALID,406.342,VALID,25.8804,VALID,54,VALID,0,
2016-01-29, 11:21:04,VALID,919.212,VALID,0,VALID,70.3794,VALID,1109.54,VALID,25.7437,VALID,63,VALID,0,
2016-01-29, 11:22:04,VALID,919.205,VALID,0,VALID,70.1049,VALID,547.09,VALID,25.7827,VALID,48,VALID,0,
2016-01-29, 11:23:04,VALID,919.195,VALID,0,VALID,69.6094,VALID,1102.56,VALID,25.8608,VALID,50,VALID,0,
2016-01-29, 11:24:04,VALID,919.175,VALID,0,VALID,66.4914,VALID,852.76,VALID,25.978,VALID,43,VALID,0,
2016-01-29, 11:25:04,VALID,919.159,VALID,0,VALID,69.1368,VALID,621.654,VALID,26.3296,VALID,51,VALID,0,
2016-01-29, 11:26:04,VALID,919.151,VALID,0,VALID,68.504,VALID,1147.04,VALID,26.4468,VALID,154,VALID,0,
2016-01-29, 11:27:04,VALID,919.147,VALID,0,VALID,65.8282,VALID,1160.9,VALID,26.605,VALID,118,VALID,0,
2016-01-29, 11:28:04,VALID,919.118,VALID,0,VALID,66.9946,VALID,657.11,VALID,26.6596,VALID,49,VALID,0,
2016-01-29, 11:29:04,VALID,919.077,VALID,0,VALID,63.7699,VALID,912.82,VALID,26.7202,VALID,101,VALID,0.407813,